Joliet, IL

5:25 PM CDT on September 21, 2017 (GMT -0500)
Joliet Regional

Weather History for KJOT - December, 2013

Change the Weather History Date:

Tuesday, December 3, 2013

  Actual Average (KARR) Record (KARR)
Temperature  
Mean Temperature 43 °F -  
Max Temperature 50 °F 39 °F 70 °F (2012)
Min Temperature 36 °F 25 °F -3 °F (2006)
Degree Days  
Heating Degree Days 22    
Moisture  
Dew Point 42 °F    
Average Humidity 93    
Maximum Humidity 96    
Minimum Humidity 91    
Precipitation  
Precipitation 0.02 in - - ()
Sea Level Pressure  
Sea Level Pressure 29.71 in    
Wind  
Wind Speed 6 mph (SSE)    
Max Wind Speed 10 mph    
Max Gust Speed 16 mph    
Visibility 2 miles    
Events Rain    
Averages and records for this station are not official NWS values.
T = Trace of Precipitation, MM = Missing Value Source: NWS Daily Summary

Daily Weather History Graph

Daily Weather History Graph

Search for Another Location

Airport or City:

Trip Planner

Search our weather history database for the weather conditions in past years. The results will help you decide how hot, cold, wet, or windy it might be!

Date:

Astronomy

Dec. 03, 2013 Rise Set
Actual Time 7:02 AM CST 4:23 PM CST
Civil Twilight 6:31 AM CST 4:54 PM CST
Nautical Twilight 5:56 AM CST 5:28 PM CST
Astronomical Twilight 5:23 AM CST 6:02 PM CST
Moon 7:30 AM CST (12/3) 5:26 PM CST (12/3)
Length of Visible Light 10h 23m
Length of Day
9h 21m
New Moon, 1% of the Moon is Illuminated
Dec 3
New Moon
Dec 9
First Quarter
Dec 17
Full
Dec 25
Last Quarter
Jan 1
New

Hourly Weather History & Observations

Time (CST) Temp. Windchill Dew Point Humidity Pressure Visibility Wind Dir Wind Speed Gust Speed Precip Events Conditions
12:15 AM 36.7 °F 32.0 °F 34.7 °F 93% 29.74 in 2.0 mi ESE 5.8 mph - N/A   Overcast
12:35 AM 36.7 °F 32.0 °F 34.7 °F 93% 29.74 in 2.0 mi ESE 5.8 mph - N/A   Overcast
12:55 AM 36.9 °F 32.2 °F 34.7 °F 92% 29.74 in 2.0 mi SE 5.8 mph - N/A   Overcast
1:15 AM 36.9 °F 30.7 °F 34.9 °F 93% 29.74 in 2.0 mi ESE 8.1 mph - N/A   Mist
1:35 AM 36.7 °F 32.0 °F 34.7 °F 93% 29.74 in 2.0 mi ESE 5.8 mph - N/A   Mist
1:55 AM 36.7 °F 32.0 °F 34.9 °F 93% 29.74 in 2.0 mi ESE 5.8 mph - N/A   Mist
2:15 AM 36.7 °F 30.5 °F 34.7 °F 93% 29.73 in 2.0 mi ESE 8.1 mph - N/A   Mist
2:35 AM 36.5 °F 31.0 °F 34.5 °F 93% 29.72 in 2.0 mi ESE 6.9 mph - N/A   Mist
2:55 AM 36.7 °F 32.9 °F 34.7 °F 93% 29.73 in 1.8 mi ESE 4.6 mph - N/A   Mostly Cloudy
3:15 AM 37.0 °F 31.6 °F 35.1 °F 93% 29.71 in 1.8 mi SE 6.9 mph - N/A   Mostly Cloudy
3:35 AM 37.2 °F 32.6 °F 35.1 °F 92% 29.71 in 2.0 mi SE 5.8 mph - N/A   Mist
3:55 AM 37.4 °F 32.1 °F 35.6 °F 93% 29.71 in 2.0 mi SE 6.9 mph - N/A   Mist
4:15 AM 37.8 °F 33.3 °F 35.8 °F 93% 29.71 in 2.0 mi SE 5.8 mph - N/A   Mist
4:35 AM 38.3 °F 34.8 °F 36.0 °F 91% 29.71 in 2.0 mi SE 4.6 mph - N/A   Mist
4:55 AM 38.3 °F 33.9 °F 36.1 °F 92% 29.71 in 2.0 mi ESE 5.8 mph - N/A   Mist
5:15 AM 38.3 °F 34.8 °F 36.5 °F 93% 29.71 in 2.0 mi SE 4.6 mph - N/A   Overcast
5:35 AM 38.5 °F 35.0 °F 36.5 °F 93% 29.71 in 2.0 mi SE 4.6 mph - N/A   Mist
5:55 AM 38.7 °F 34.3 °F 36.5 °F 92% 29.71 in 2.0 mi SE 5.8 mph - N/A   Mist
6:15 AM 38.8 °F 34.6 °F 36.7 °F 92% 29.72 in 2.0 mi SSE 5.8 mph - N/A   Mist
6:35 AM 38.8 °F 33.2 °F 36.7 °F 92% 29.71 in 2.0 mi SE 8.1 mph - N/A   Overcast
6:55 AM 38.8 °F 34.6 °F 36.7 °F 92% 29.72 in 2.0 mi SE 5.8 mph - N/A   Overcast
7:15 AM 39.2 °F 35.0 °F 37.0 °F 92% 29.71 in 2.0 mi SE 5.8 mph - N/A   Overcast
7:35 AM 39.4 °F 34.5 °F 37.4 °F 93% 29.72 in 2.0 mi SE 6.9 mph - N/A   Overcast
7:55 AM 39.6 °F 34.7 °F 37.6 °F 93% 29.72 in 2.0 mi SSE 6.9 mph - N/A   Overcast
8:15 AM 40.1 °F 38.0 °F 37.8 °F 91% 29.73 in 2.0 mi SE 3.5 mph - N/A   Mist
8:35 AM 40.5 °F 37.3 °F 38.3 °F 92% 29.74 in 2.0 mi SSE 4.6 mph - N/A   Mist
8:55 AM 41.2 °F 37.3 °F 39.2 °F 93% 29.73 in 2.0 mi SE 5.8 mph - N/A   Overcast
9:15 AM 41.9 °F 37.5 °F 39.4 °F 91% 29.72 in 2.5 mi SSE 6.9 mph - N/A   Overcast
9:35 AM 42.4 °F 38.8 °F 40.3 °F 92% 29.73 in 2.0 mi SSE 5.8 mph - N/A   Overcast
9:55 AM 43.0 °F 38.8 °F 41.2 °F 93% 29.73 in 1.8 mi SE 6.9 mph - N/A   Overcast
10:15 AM 43.7 °F 40.3 °F 41.9 °F 93% 29.73 in 1.5 mi SE 5.8 mph - N/A   Overcast
10:35 AM 43.9 °F 39.3 °F 42.3 °F 94% 29.72 in 1.5 mi SSE 8.1 mph - N/A   Overcast
10:55 AM 44.2 °F 39.7 °F 42.8 °F 95% 29.71 in 1.5 mi SSE 8.1 mph - N/A   Overcast
11:15 AM 44.8 °F 41.0 °F 43.7 °F 96% 29.71 in 1.2 mi SSE 6.9 mph - N/A   Overcast
11:35 AM 45.5 °F 41.3 °F 44.1 °F 95% 29.70 in 1.2 mi SSE 8.1 mph - N/A   Overcast
11:55 AM 45.9 °F 42.9 °F 44.4 °F 95% 29.70 in 1.8 mi SSE 5.8 mph - N/A   Overcast
12:15 PM 45.7 °F 42.7 °F 43.7 °F 93% 29.69 in 1.8 mi SE 5.8 mph - N/A   Overcast
12:35 PM 46.6 °F - 44.8 °F 93% 29.69 in 1.8 mi SSE 6.9 mph - N/A   Overcast
12:55 PM 46.8 °F - 45.1 °F 94% 29.69 in 1.5 mi SSE 5.8 mph - N/A   Overcast
1:15 PM 47.3 °F - 45.7 °F 94% 29.69 in 1.8 mi South 8.1 mph - N/A   Overcast
1:35 PM 48.0 °F - 46.0 °F 93% 29.69 in 1.8 mi South 9.2 mph - N/A   Overcast
1:55 PM 48.2 °F - 46.4 °F 93% 29.69 in 1.8 mi SSW 6.9 mph - N/A   Overcast
2:15 PM 48.2 °F - 46.6 °F 94% 29.70 in 1.2 mi SW 5.8 mph - N/A   Overcast
2:35 PM 48.2 °F - 46.6 °F 94% 29.69 in 1.5 mi SSW 6.9 mph - N/A   Overcast
2:55 PM 48.2 °F - 46.6 °F 94% 29.69 in 1.5 mi South 9.2 mph - N/A   Overcast
3:15 PM 48.2 °F - 46.6 °F 94% 29.69 in 1.8 mi South 8.1 mph 16.1 mph N/A   Overcast
3:35 PM 48.2 °F - 46.4 °F 93% 29.69 in 2.5 mi South 8.1 mph - N/A   Overcast
3:55 PM 48.2 °F - 46.4 °F 93% 29.69 in 2.5 mi South 8.1 mph - N/A   Overcast
4:15 PM 48.2 °F - 46.4 °F 93% 29.68 in 2.5 mi SSE 5.8 mph - N/A Rain Light Rain
4:35 PM 48.2 °F - 46.6 °F 94% 29.68 in 2.5 mi SSE 5.8 mph - N/A   Light Drizzle
4:55 PM 48.2 °F - 46.8 °F 95% 29.67 in 2.0 mi SSE 6.9 mph - N/A   Light Drizzle
5:15 PM 48.4 °F - 47.3 °F 96% 29.67 in 1.5 mi SSE 6.9 mph - N/A   Overcast
5:35 PM 48.6 °F - 47.5 °F 96% 29.67 in 1.8 mi SSE 4.6 mph - N/A   Overcast
5:55 PM 49.1 °F - 47.7 °F 95% 29.68 in 1.8 mi SSE 5.8 mph - N/A   Overcast
6:15 PM 49.3 °F - 47.8 °F 95% 29.70 in 2.0 mi South 6.9 mph - N/A   Overcast
6:35 PM 49.6 °F - 47.8 °F 94% 29.71 in 2.0 mi South 4.6 mph - N/A   Overcast
6:55 PM 49.6 °F - 47.7 °F 93% 29.72 in 2.0 mi South 4.6 mph - N/A   Overcast
7:15 PM 50.0 °F - 47.7 °F 92% 29.73 in 2.5 mi South 6.9 mph - N/A   Overcast
7:35 PM 49.6 °F - 47.5 °F 92% 29.74 in 2.0 mi South 5.8 mph - N/A   Overcast
7:55 PM 49.6 °F - 47.7 °F 93% 29.73 in 2.0 mi South 3.5 mph - N/A   Overcast
8:15 PM 49.6 °F - 47.7 °F 93% 29.74 in 2.0 mi South 6.9 mph - N/A   Overcast
8:35 PM 49.6 °F - 47.7 °F 93% 29.74 in 2.0 mi South 4.6 mph - N/A   Overcast
8:55 PM 49.6 °F - 47.7 °F 93% 29.74 in 2.0 mi SSE 6.9 mph - N/A   Overcast
9:15 PM 49.3 °F - 47.3 °F 93% 29.74 in 2.0 mi South 8.1 mph - N/A   Overcast
9:35 PM 49.3 °F - 47.3 °F 93% 29.73 in 2.0 mi South 9.2 mph - N/A   Overcast
9:55 PM 49.3 °F - 47.3 °F 93% 29.72 in 2.0 mi SSE 10.4 mph - N/A   Overcast
10:15 PM 49.5 °F - 47.5 °F 93% 29.73 in 2.0 mi South 8.1 mph - N/A   Overcast
10:35 PM 49.6 °F - 47.7 °F 93% 29.73 in 2.0 mi South 6.9 mph - N/A   Overcast
10:55 PM 49.6 °F - 47.8 °F 94% 29.73 in 2.0 mi South 8.1 mph - N/A   Overcast
11:15 PM 49.6 °F - 47.8 °F 94% 29.73 in 1.8 mi South 6.9 mph - N/A   Overcast
11:35 PM 49.5 °F - 47.8 °F 94% 29.73 in 1.8 mi South 6.9 mph - N/A   Overcast
11:55 PM 49.5 °F - 47.7 °F 94% 29.72 in 1.8 mi South 6.9 mph - N/A   Overcast